N828WW CYKA-KGBD

Flight info

Callsign N828WW
Flight time 2h 29m
Altitude 45000
Route 6K DCT YXC J569 GTF J13 BIL J136 MBW Q148 PENUT
Aircraft C750/M-SBDE3FGHRWXY/S

Departure

Time 2026-05-07 16:20
Airport Kamloops John Moose Fulton Field Regional Airport (CYKA)

Arrival

Time 2026-05-07 18:49
Airport Great Bend Municipal Airport (KGBD)
Time Latitude Longitude Altitude Speed Heading
2026-05-07 15:55 50.70518 -120.43864 1135 ft 0 kts 149°
2026-05-07 16:08 50.70520 -120.43867 1135 ft 3 kts 150°
2026-05-07 16:08 50.70543 -120.43881 1135 ft 4 kts 183°
2026-05-07 16:08 50.70564 -120.43868 1137 ft 3 kts 239°
2026-05-07 16:08 50.70567 -120.43859 1136 ft 0 kts 241°
2026-05-07 16:16 50.70554 -120.43895 1138 ft 10 kts 241°
2026-05-07 16:16 50.70482 -120.44012 1135 ft 17 kts 210°
2026-05-07 16:17 50.70414 -120.44129 1135 ft 13 kts 240°
2026-05-07 16:17 50.70378 -120.44145 1135 ft 7 kts 121°
2026-05-07 16:17 50.70354 -120.43992 1135 ft 22 kts 103°
2026-05-07 16:17 50.70306 -120.43676 1137 ft 35 kts 103°
2026-05-07 16:18 50.70258 -120.43359 1136 ft 22 kts 103°
2026-05-07 16:18 50.70138 -120.43183 1135 ft 30 kts 168°
2026-05-07 16:18 50.70076 -120.43340 1134 ft 0 kts 284°
2026-05-07 16:19 50.70076 -120.43341 1134 ft 0 kts 284°
2026-05-07 16:19 50.70097 -120.43481 1135 ft 47 kts 283°
2026-05-07 16:19 50.70245 -120.44475 1136 ft 129 kts 283°
2026-05-07 16:20 50.70489 -120.46070 1253 ft 158 kts 284°
2026-05-07 16:20 50.70721 -120.47705 2065 ft 151 kts 276°
2026-05-07 16:20 50.70478 -120.49327 2691 ft 160 kts 241°
2026-05-07 16:20 50.69613 -120.50495 3342 ft 173 kts 205°
2026-05-07 16:21 50.68404 -120.50723 4030 ft 182 kts 173°
2026-05-07 16:21 50.67301 -120.49836 4723 ft 182 kts 129°
2026-05-07 16:21 50.66928 -120.47978 5310 ft 175 kts 94°
2026-05-07 16:21 50.66802 -120.46090 6053 ft 173 kts 98°
2026-05-07 16:22 50.66344 -120.44326 6709 ft 174 kts 112°
2026-05-07 16:22 50.65864 -120.42549 7333 ft 179 kts 109°
2026-05-07 16:22 50.65395 -120.40694 8007 ft 184 kts 109°
2026-05-07 16:22 50.64909 -120.38805 8709 ft 188 kts 109°
2026-05-07 16:23 50.64415 -120.36895 9453 ft 188 kts 109°
2026-05-07 16:23 50.63913 -120.34955 10062 ft 195 kts 109°
2026-05-07 16:23 50.63390 -120.32948 10614 ft 202 kts 109°
2026-05-07 16:23 50.62851 -120.30862 11163 ft 209 kts 109°
2026-05-07 16:24 50.62291 -120.28695 11707 ft 217 kts 110°
2026-05-07 16:24 50.61709 -120.26457 12270 ft 224 kts 110°
2026-05-07 16:24 50.61105 -120.24142 12847 ft 232 kts 110°
2026-05-07 16:24 50.60484 -120.21755 13454 ft 240 kts 111°
2026-05-07 16:25 50.59842 -120.19300 14033 ft 245 kts 110°
2026-05-07 16:25 50.59195 -120.16814 14558 ft 252 kts 110°
2026-05-07 16:25 50.58518 -120.14224 15109 ft 259 kts 111°
2026-05-07 16:25 50.57820 -120.11559 15655 ft 266 kts 111°
2026-05-07 16:26 50.57105 -120.08827 16210 ft 274 kts 111°
2026-05-07 16:26 50.56368 -120.06018 16789 ft 281 kts 111°
2026-05-07 16:26 50.55612 -120.03139 17367 ft 288 kts 111°
2026-05-07 16:26 50.55102 -120.01196 17757 ft 293 kts 111°
2026-05-07 16:27 50.54038 -119.97158 18512 ft 304 kts 111°
2026-05-07 16:27 50.53219 -119.94052 19031 ft 312 kts 110°
2026-05-07 16:27 50.52379 -119.90865 19548 ft 320 kts 110°
2026-05-07 16:27 50.51524 -119.87630 20048 ft 328 kts 110°
2026-05-07 16:28 50.50637 -119.84279 20580 ft 336 kts 110°
2026-05-07 16:28 50.49728 -119.80852 21110 ft 344 kts 110°
2026-05-07 16:28 50.48796 -119.77344 21655 ft 351 kts 109°
2026-05-07 16:28 50.47844 -119.73761 22194 ft 358 kts 109°
2026-05-07 16:29 50.46877 -119.70123 22755 ft 365 kts 109°
2026-05-07 16:29 50.45888 -119.66417 23323 ft 371 kts 109°
2026-05-07 16:29 50.44880 -119.62649 23852 ft 378 kts 109°
2026-05-07 16:29 50.43851 -119.58805 24339 ft 384 kts 109°
2026-05-07 16:30 50.42810 -119.54923 24833 ft 388 kts 109°
2026-05-07 16:30 50.41757 -119.51001 25323 ft 392 kts 109°
2026-05-07 16:30 50.40692 -119.47043 25826 ft 396 kts 109°
2026-05-07 16:30 50.39615 -119.43046 26378 ft 400 kts 109°
2026-05-07 16:31 50.38539 -119.39060 26906 ft 404 kts 109°
2026-05-07 16:31 50.37439 -119.34991 27431 ft 406 kts 109°
2026-05-07 16:31 50.36330 -119.30898 27987 ft 409 kts 109°
2026-05-07 16:31 50.35214 -119.26784 28548 ft 411 kts 109°
2026-05-07 16:32 50.34198 -119.22592 29113 ft 412 kts 105°
2026-05-07 16:32 50.33222 -119.18361 29688 ft 415 kts 105°
2026-05-07 16:32 50.32228 -119.14110 30254 ft 416 kts 106°
2026-05-07 16:32 50.31220 -119.09843 30760 ft 418 kts 106°
2026-05-07 16:33 50.30212 -119.05562 31278 ft 419 kts 105°
2026-05-07 16:33 50.29216 -119.01318 31790 ft 420 kts 105°
2026-05-07 16:33 50.28207 -118.97037 32287 ft 419 kts 105°
2026-05-07 16:33 50.27197 -118.92770 32866 ft 418 kts 105°
2026-05-07 16:34 50.26185 -118.88503 33410 ft 419 kts 104°
2026-05-07 16:34 50.25172 -118.84237 33966 ft 418 kts 104°
2026-05-07 16:34 50.24160 -118.79975 34470 ft 418 kts 105°
2026-05-07 16:34 50.23142 -118.75704 34972 ft 418 kts 105°
2026-05-07 16:35 50.22126 -118.71451 35477 ft 417 kts 106°
2026-05-07 16:35 50.21113 -118.67218 36020 ft 415 kts 107°
2026-05-07 16:35 50.20118 -118.63064 36544 ft 413 kts 107°
2026-05-07 16:35 50.19112 -118.58874 37082 ft 411 kts 108°
2026-05-07 16:36 50.18112 -118.54718 37630 ft 408 kts 108°
2026-05-07 16:36 50.17115 -118.50582 38200 ft 404 kts 109°
2026-05-07 16:36 50.16129 -118.46498 38746 ft 401 kts 109°
2026-05-07 16:36 50.15150 -118.42452 39196 ft 397 kts 109°
2026-05-07 16:37 50.14176 -118.38435 39563 ft 396 kts 109°
2026-05-07 16:37 50.13194 -118.34388 39777 ft 401 kts 109°
2026-05-07 16:37 50.12202 -118.30308 40015 ft 404 kts 109°
2026-05-07 16:37 50.11197 -118.26187 40263 ft 408 kts 109°
2026-05-07 16:38 50.10198 -118.22097 40516 ft 412 kts 109°
2026-05-07 16:38 50.09173 -118.17903 40770 ft 415 kts 109°
2026-05-07 16:38 50.08138 -118.13683 41005 ft 416 kts 109°
2026-05-07 16:38 50.07103 -118.09470 41284 ft 417 kts 109°
2026-05-07 16:39 50.06412 -118.06661 41457 ft 419 kts 109°
2026-05-07 16:39 50.05365 -118.02408 41715 ft 423 kts 109°
2026-05-07 16:39 50.04306 -117.98120 41983 ft 425 kts 110°
2026-05-07 16:39 50.03242 -117.93821 42229 ft 426 kts 109°
2026-05-07 16:40 50.02177 -117.89524 42508 ft 426 kts 110°
2026-05-07 16:40 50.01104 -117.85196 42762 ft 430 kts 110°
2026-05-07 16:40 50.00025 -117.80855 43005 ft 431 kts 110°
2026-05-07 16:40 49.98584 -117.75082 43337 ft 435 kts 110°
2026-05-07 16:41 49.97841 -117.72112 43515 ft 436 kts 110°
2026-05-07 16:41 49.96740 -117.67707 43766 ft 438 kts 110°
2026-05-07 16:41 49.95646 -117.63343 44032 ft 440 kts 110°
2026-05-07 16:41 49.94529 -117.58899 44292 ft 441 kts 110°
2026-05-07 16:42 49.93408 -117.54447 44560 ft 443 kts 110°
2026-05-07 16:42 49.92283 -117.49986 44813 ft 444 kts 110°
2026-05-07 16:42 49.91155 -117.45520 45040 ft 445 kts 110°
2026-05-07 16:43 49.88858 -117.36459 45057 ft 459 kts 110°
2026-05-07 16:43 49.86479 -117.27113 45051 ft 473 kts 110°
2026-05-07 16:44 49.84023 -117.17502 45065 ft 486 kts 110°
2026-05-07 16:44 49.81494 -117.07647 45047 ft 499 kts 110°
2026-05-07 16:45 49.78890 -116.97549 45029 ft 511 kts 111°
2026-05-07 16:45 49.76218 -116.87232 45042 ft 522 kts 111°
2026-05-07 16:46 49.73495 -116.76767 45046 ft 533 kts 111°
2026-05-07 16:46 49.70677 -116.65984 45035 ft 542 kts 111°
2026-05-07 16:47 49.67846 -116.55204 45042 ft 548 kts 111°
2026-05-07 16:47 49.64956 -116.44252 45040 ft 553 kts 111°
2026-05-07 16:48 49.62035 -116.33231 45029 ft 557 kts 111°
2026-05-07 16:48 49.59086 -116.22164 45028 ft 560 kts 111°
2026-05-07 16:49 49.56110 -116.11072 45029 ft 561 kts 112°
2026-05-07 16:49 49.52237 -116.00638 45028 ft 562 kts 124°
2026-05-07 16:50 49.47914 -115.90596 45023 ft 564 kts 122°
2026-05-07 16:50 49.43796 -115.80359 45021 ft 563 kts 123°
2026-05-07 16:51 49.39520 -115.70345 45016 ft 564 kts 122°
2026-05-07 16:51 49.35329 -115.60158 45004 ft 565 kts 122°
2026-05-07 16:52 49.31035 -115.50055 45002 ft 566 kts 123°
2026-05-07 16:52 49.26786 -115.39909 45004 ft 566 kts 122°
2026-05-07 16:53 49.22494 -115.29810 45003 ft 566 kts 123°
2026-05-07 16:53 49.18201 -115.19690 44996 ft 567 kts 122°
2026-05-07 16:54 49.13897 -115.09605 44999 ft 567 kts 123°
2026-05-07 16:54 49.09583 -114.99535 45014 ft 567 kts 122°
2026-05-07 16:55 49.05269 -114.89491 45017 ft 566 kts 123°
2026-05-07 16:55 49.00941 -114.79467 45022 ft 564 kts 123°
2026-05-07 16:56 48.96616 -114.69477 45018 ft 566 kts 123°
2026-05-07 16:56 48.90091 -114.54503 45002 ft 567 kts 123°
2026-05-07 16:57 48.85755 -114.44595 44995 ft 566 kts 123°
2026-05-07 16:57 48.81388 -114.34657 44994 ft 566 kts 123°
2026-05-07 16:58 48.77012 -114.24729 45010 ft 566 kts 123°
2026-05-07 16:58 48.72638 -114.14846 44980 ft 564 kts 123°
2026-05-07 16:59 48.68255 -114.04975 44983 ft 564 kts 123°
2026-05-07 16:59 48.63862 -113.95124 44990 ft 564 kts 123°
2026-05-07 17:00 48.59468 -113.85300 44999 ft 565 kts 123°
2026-05-07 17:00 48.55060 -113.75487 45004 ft 564 kts 123°
2026-05-07 17:01 48.50682 -113.65767 44995 ft 563 kts 124°
2026-05-07 17:01 48.46260 -113.55994 44990 ft 563 kts 124°
2026-05-07 17:02 48.41834 -113.46241 45015 ft 563 kts 124°
2026-05-07 17:02 48.37413 -113.36537 44997 ft 562 kts 124°
2026-05-07 17:03 48.32976 -113.26833 44990 ft 563 kts 124°
2026-05-07 17:03 48.28535 -113.17153 44988 ft 563 kts 124°
2026-05-07 17:04 48.24085 -113.07489 44983 ft 563 kts 124°
2026-05-07 17:04 48.19624 -112.97836 44980 ft 563 kts 124°
2026-05-07 17:05 48.15180 -112.88251 44983 ft 563 kts 124°
2026-05-07 17:05 48.10704 -112.78636 44976 ft 563 kts 124°
2026-05-07 17:06 48.06219 -112.69031 44978 ft 563 kts 124°
2026-05-07 17:06 48.01723 -112.59440 44963 ft 563 kts 125°
2026-05-07 17:07 47.97220 -112.49865 44966 ft 564 kts 125°
2026-05-07 17:07 47.92705 -112.40299 44958 ft 563 kts 125°
2026-05-07 17:08 47.88194 -112.30775 44949 ft 563 kts 125°
2026-05-07 17:08 47.83672 -112.21261 44947 ft 562 kts 125°
2026-05-07 17:09 47.79143 -112.11766 44942 ft 563 kts 125°
2026-05-07 17:09 47.74606 -112.02285 44931 ft 562 kts 125°
2026-05-07 17:10 47.70063 -111.92825 44948 ft 562 kts 125°
2026-05-07 17:10 47.65512 -111.83382 44945 ft 562 kts 125°
2026-05-07 17:11 47.60956 -111.73962 44936 ft 562 kts 126°
2026-05-07 17:11 47.56394 -111.64561 44939 ft 562 kts 126°
2026-05-07 17:12 47.51819 -111.55164 45001 ft 562 kts 126°
2026-05-07 17:12 47.47269 -111.45852 44998 ft 562 kts 126°
2026-05-07 17:13 47.42510 -111.36676 45010 ft 563 kts 130°
2026-05-07 17:13 47.37454 -111.27825 45007 ft 563 kts 130°
2026-05-07 17:14 47.32483 -111.18888 45003 ft 564 kts 129°
2026-05-07 17:14 47.27425 -111.10001 44972 ft 567 kts 130°
2026-05-07 17:15 47.22380 -111.01060 44958 ft 568 kts 130°
2026-05-07 17:15 47.17298 -110.92139 44969 ft 568 kts 130°
2026-05-07 17:16 47.12227 -110.83243 44971 ft 568 kts 130°
2026-05-07 17:16 47.07180 -110.74423 44975 ft 568 kts 130°
2026-05-07 17:17 47.02085 -110.65552 44972 ft 568 kts 130°
2026-05-07 17:17 46.96995 -110.56710 44965 ft 568 kts 130°
2026-05-07 17:18 46.91895 -110.47889 44976 ft 567 kts 130°
2026-05-07 17:18 46.86784 -110.39069 44985 ft 568 kts 130°
2026-05-07 17:19 46.81667 -110.30274 44981 ft 568 kts 130°
2026-05-07 17:19 46.76553 -110.21506 44961 ft 567 kts 130°
2026-05-07 17:20 46.71467 -110.12818 44963 ft 566 kts 130°
2026-05-07 17:20 46.66345 -110.04096 44957 ft 567 kts 131°
2026-05-07 17:21 46.61203 -109.95369 44961 ft 568 kts 130°
2026-05-07 17:21 46.56049 -109.86646 44956 ft 568 kts 130°
2026-05-07 17:22 46.50888 -109.77941 44951 ft 568 kts 131°
2026-05-07 17:22 46.45726 -109.69260 44937 ft 568 kts 131°
2026-05-07 17:23 46.40571 -109.60619 44930 ft 565 kts 131°
2026-05-07 17:23 46.35418 -109.52011 44929 ft 565 kts 131°
2026-05-07 17:24 46.30260 -109.43419 44923 ft 564 kts 131°
2026-05-07 17:24 46.25137 -109.34913 44916 ft 564 kts 131°
2026-05-07 17:25 46.19969 -109.26359 44916 ft 565 kts 131°
2026-05-07 17:25 46.14795 -109.17820 44921 ft 564 kts 131°
2026-05-07 17:26 46.09620 -109.09308 44923 ft 564 kts 131°
2026-05-07 17:26 46.04469 -109.00861 44918 ft 564 kts 131°
2026-05-07 17:27 45.99283 -108.92381 44927 ft 564 kts 131°
2026-05-07 17:27 45.94967 -108.85345 44934 ft 564 kts 131°
2026-05-07 17:28 45.88922 -108.75520 44931 ft 564 kts 131°
2026-05-07 17:28 45.83717 -108.67104 44974 ft 563 kts 133°
2026-05-07 17:29 45.78817 -108.60972 44984 ft 561 kts 147°
2026-05-07 17:29 45.71961 -108.55700 44999 ft 559 kts 158°
2026-05-07 17:30 45.64825 -108.51287 44941 ft 559 kts 156°
2026-05-07 17:30 45.57928 -108.46102 44957 ft 560 kts 154°
2026-05-07 17:31 45.50906 -108.41293 44964 ft 559 kts 157°
2026-05-07 17:31 45.43937 -108.36334 44969 ft 561 kts 154°
2026-05-07 17:32 45.36928 -108.31427 44973 ft 561 kts 156°
2026-05-07 17:32 45.29923 -108.26546 44979 ft 561 kts 155°
2026-05-07 17:33 45.22924 -108.21636 44981 ft 561 kts 156°
2026-05-07 17:33 45.15912 -108.16791 44988 ft 561 kts 155°
2026-05-07 17:34 45.08952 -108.11935 44990 ft 562 kts 156°
2026-05-07 17:34 45.01919 -108.07093 44995 ft 562 kts 156°
2026-05-07 17:35 44.94888 -108.02227 45000 ft 562 kts 156°
2026-05-07 17:35 44.87873 -107.97413 45005 ft 560 kts 156°
2026-05-07 17:36 44.80850 -107.92588 45012 ft 561 kts 156°
2026-05-07 17:36 44.73835 -107.87793 45006 ft 560 kts 156°
2026-05-07 17:37 44.66833 -107.83013 45012 ft 560 kts 156°
2026-05-07 17:37 44.59823 -107.78245 45011 ft 560 kts 156°
2026-05-07 17:38 44.52854 -107.73515 45014 ft 560 kts 156°
2026-05-07 17:38 44.45826 -107.68758 45013 ft 560 kts 156°
2026-05-07 17:39 44.38809 -107.64021 44997 ft 560 kts 156°
2026-05-07 17:39 44.31789 -107.59296 45021 ft 560 kts 156°
2026-05-07 17:40 44.24769 -107.54583 45016 ft 560 kts 156°
2026-05-07 17:40 44.17746 -107.49881 45006 ft 561 kts 156°
2026-05-07 17:41 44.10699 -107.45175 44998 ft 561 kts 156°
2026-05-07 17:41 44.03699 -107.40512 44984 ft 561 kts 156°
2026-05-07 17:42 43.96646 -107.35827 44992 ft 562 kts 156°
2026-05-07 17:42 43.89578 -107.31144 44990 ft 563 kts 156°
2026-05-07 17:43 43.82509 -107.26473 44989 ft 563 kts 156°
2026-05-07 17:43 43.75442 -107.21815 44989 ft 563 kts 156°
2026-05-07 17:44 43.68370 -107.17166 44982 ft 562 kts 156°
2026-05-07 17:44 43.61307 -107.12536 45005 ft 561 kts 156°
2026-05-07 17:45 43.54247 -107.07920 44992 ft 562 kts 156°
2026-05-07 17:45 43.47190 -107.03316 44982 ft 559 kts 156°
2026-05-07 17:46 43.40213 -106.98779 44977 ft 559 kts 156°
2026-05-07 17:46 43.33177 -106.94213 44960 ft 558 kts 156°
2026-05-07 17:47 43.26161 -106.89673 44954 ft 557 kts 156°
2026-05-07 17:47 43.19143 -106.85142 44954 ft 558 kts 156°
2026-05-07 17:48 43.12114 -106.80617 44955 ft 559 kts 156°
2026-05-07 17:48 43.05078 -106.76098 44972 ft 559 kts 156°
2026-05-07 17:49 42.98042 -106.71591 44983 ft 558 kts 156°
2026-05-07 17:49 42.91014 -106.67100 45014 ft 558 kts 157°
2026-05-07 17:50 42.83983 -106.62619 44961 ft 557 kts 157°
2026-05-07 17:50 42.76973 -106.58162 44953 ft 555 kts 157°
2026-05-07 17:51 42.69965 -106.53719 44958 ft 555 kts 157°
2026-05-07 17:51 42.62962 -106.49288 44951 ft 555 kts 157°
2026-05-07 17:52 42.55986 -106.44886 44969 ft 553 kts 157°
2026-05-07 17:52 42.49011 -106.40496 44975 ft 553 kts 157°
2026-05-07 17:53 42.42035 -106.36115 44973 ft 549 kts 157°
2026-05-07 17:53 42.35141 -106.31799 44984 ft 550 kts 157°
2026-05-07 17:54 42.28186 -106.27452 44985 ft 551 kts 157°
2026-05-07 17:54 42.21237 -106.23121 44971 ft 549 kts 158°
2026-05-07 17:55 42.14298 -106.18806 44980 ft 549 kts 158°
2026-05-07 17:55 42.07357 -106.14501 44965 ft 548 kts 158°
2026-05-07 17:56 42.00456 -106.10230 44975 ft 544 kts 158°
2026-05-07 17:56 41.93576 -106.05984 44969 ft 544 kts 158°
2026-05-07 17:57 41.87985 -106.02109 44949 ft 547 kts 149°
2026-05-07 17:57 41.83989 -105.97859 44975 ft 551 kts 138°
2026-05-07 17:57 41.81410 -105.94049 44969 ft 555 kts 129°
2026-05-07 17:58 41.77378 -105.85197 44983 ft 559 kts 117°
2026-05-07 17:58 41.73966 -105.75830 44978 ft 560 kts 118°
2026-05-07 17:59 41.69948 -105.66994 44984 ft 559 kts 124°
2026-05-07 17:59 41.65941 -105.58054 44988 ft 561 kts 119°
2026-05-07 18:00 41.62041 -105.49024 44996 ft 561 kts 122°
2026-05-07 18:00 41.57994 -105.40102 44997 ft 562 kts 120°
2026-05-07 18:01 41.54064 -105.31082 44992 ft 562 kts 122°
2026-05-07 18:01 41.50012 -105.22145 45003 ft 564 kts 121°
2026-05-07 18:02 41.43982 -105.08603 45014 ft 566 kts 122°
2026-05-07 18:03 41.39924 -104.99587 45034 ft 568 kts 121°
2026-05-07 18:03 41.35858 -104.90542 45058 ft 571 kts 121°
2026-05-07 18:04 41.31748 -104.81470 45066 ft 573 kts 121°
2026-05-07 18:04 41.27677 -104.72471 45073 ft 573 kts 121°
2026-05-07 18:05 41.23550 -104.63410 45055 ft 571 kts 121°
2026-05-07 18:05 41.19417 -104.54393 45035 ft 571 kts 123°
2026-05-07 18:06 41.15068 -104.45640 45040 ft 572 kts 123°
2026-05-07 18:06 41.10705 -104.36821 45040 ft 572 kts 123°
2026-05-07 18:07 41.06337 -104.28058 45057 ft 566 kts 124°
2026-05-07 18:07 41.01992 -104.19344 45067 ft 566 kts 124°
2026-05-07 18:08 40.97651 -104.10674 45071 ft 566 kts 124°
2026-05-07 18:08 40.93298 -104.01998 45055 ft 566 kts 124°
2026-05-07 18:09 40.88940 -103.93339 45068 ft 565 kts 124°
2026-05-07 18:09 40.84584 -103.84708 45013 ft 565 kts 124°
2026-05-07 18:10 40.80209 -103.76064 44950 ft 565 kts 124°
2026-05-07 18:10 40.75834 -103.67444 44948 ft 565 kts 124°
2026-05-07 18:11 40.71483 -103.58893 44961 ft 565 kts 125°
2026-05-07 18:11 40.67099 -103.50304 44988 ft 565 kts 125°
2026-05-07 18:12 40.62708 -103.41723 45003 ft 565 kts 125°
2026-05-07 18:12 40.58312 -103.33158 45007 ft 564 kts 125°
2026-05-07 18:13 40.53906 -103.24595 45011 ft 566 kts 125°
2026-05-07 18:13 40.49603 -103.15923 45003 ft 566 kts 124°
2026-05-07 18:14 40.45276 -103.07289 44971 ft 565 kts 124°
2026-05-07 18:14 40.41028 -102.98699 44962 ft 565 kts 124°
2026-05-07 18:15 40.36710 -102.90091 44939 ft 565 kts 124°
2026-05-07 18:15 40.32410 -102.81474 44956 ft 565 kts 124°
2026-05-07 18:16 40.28093 -102.72891 44966 ft 564 kts 125°
2026-05-07 18:16 40.23783 -102.64319 44964 ft 564 kts 125°
2026-05-07 18:17 40.19459 -102.55759 44953 ft 564 kts 126°
2026-05-07 18:17 40.15858 -102.48640 44955 ft 565 kts 126°
2026-05-07 18:18 40.11509 -102.40066 44965 ft 565 kts 126°
2026-05-07 18:18 40.07154 -102.31506 44946 ft 565 kts 126°
2026-05-07 18:19 40.02801 -102.22971 44940 ft 565 kts 126°
2026-05-07 18:19 39.98440 -102.14445 44942 ft 565 kts 126°
2026-05-07 18:20 39.94072 -102.05926 44952 ft 565 kts 126°
2026-05-07 18:20 39.89695 -101.97415 44973 ft 567 kts 126°
2026-05-07 18:21 39.85298 -101.88887 44963 ft 568 kts 127°
2026-05-07 18:21 39.80907 -101.80396 44990 ft 570 kts 127°
2026-05-07 18:22 39.76440 -101.71777 44993 ft 571 kts 127°
2026-05-07 18:22 39.72019 -101.63272 44980 ft 572 kts 127°
2026-05-07 18:23 39.67551 -101.54700 44942 ft 573 kts 127°
2026-05-07 18:23 39.63067 -101.46121 44948 ft 575 kts 127°
2026-05-07 18:24 39.58559 -101.37519 44935 ft 576 kts 127°
2026-05-07 18:24 39.54042 -101.28921 44023 ft 576 kts 127°
2026-05-07 18:24 39.51802 -101.24664 43314 ft 567 kts 127°
2026-05-07 18:25 39.49600 -101.20482 42586 ft 557 kts 127°
2026-05-07 18:25 39.47432 -101.16378 41878 ft 548 kts 128°
2026-05-07 18:25 39.45314 -101.12375 41174 ft 541 kts 128°
2026-05-07 18:25 39.43202 -101.08384 40464 ft 534 kts 128°
2026-05-07 18:26 39.41116 -101.04446 39778 ft 527 kts 128°
2026-05-07 18:26 39.39058 -101.00565 39094 ft 520 kts 129°
2026-05-07 18:26 39.37023 -100.96736 38321 ft 514 kts 129°
2026-05-07 18:26 39.35017 -100.92964 37649 ft 505 kts 129°
2026-05-07 18:27 39.33038 -100.89241 36998 ft 499 kts 128°
2026-05-07 18:27 39.31315 -100.85345 36341 ft 499 kts 118°
2026-05-07 18:27 39.30022 -100.81193 35672 ft 496 kts 111°
2026-05-07 18:27 39.28951 -100.77049 35069 ft 491 kts 110°
2026-05-07 18:28 39.27834 -100.72907 34428 ft 485 kts 112°
2026-05-07 18:28 39.26612 -100.68889 33781 ft 478 kts 114°
2026-05-07 18:28 39.25403 -100.64906 33135 ft 472 kts 112°
2026-05-07 18:28 39.24286 -100.60939 32512 ft 468 kts 111°
2026-05-07 18:29 39.23183 -100.56986 31911 ft 465 kts 112°
2026-05-07 18:29 39.22042 -100.53090 31279 ft 463 kts 112°
2026-05-07 18:29 39.20891 -100.49227 30666 ft 460 kts 112°
2026-05-07 18:29 39.19775 -100.45378 30064 ft 456 kts 112°
2026-05-07 18:30 39.18681 -100.41562 29411 ft 451 kts 112°
2026-05-07 18:30 39.17587 -100.37807 28817 ft 445 kts 112°
2026-05-07 18:30 39.16506 -100.34143 28240 ft 441 kts 112°
2026-05-07 18:30 39.15427 -100.30464 27662 ft 436 kts 112°
2026-05-07 18:31 39.14366 -100.26822 27087 ft 432 kts 111°
2026-05-07 18:31 39.13313 -100.23223 26527 ft 427 kts 111°
2026-05-07 18:31 39.12264 -100.19658 25978 ft 423 kts 112°
2026-05-07 18:31 39.11223 -100.16129 25416 ft 420 kts 112°
2026-05-07 18:32 39.10194 -100.12630 24859 ft 416 kts 111°
2026-05-07 18:32 39.09175 -100.09167 24318 ft 412 kts 111°
2026-05-07 18:32 39.08163 -100.05741 23776 ft 407 kts 111°
2026-05-07 18:32 39.07157 -100.02342 23195 ft 403 kts 111°
2026-05-07 18:33 39.06165 -99.98990 22660 ft 397 kts 111°
2026-05-07 18:33 39.05188 -99.95691 22145 ft 393 kts 111°
2026-05-07 18:33 39.04215 -99.92414 21629 ft 390 kts 111°
2026-05-07 18:33 39.03266 -99.89219 21124 ft 386 kts 111°
2026-05-07 18:34 39.02308 -99.85997 20614 ft 383 kts 110°
2026-05-07 18:34 39.01360 -99.82815 20132 ft 379 kts 110°
2026-05-07 18:34 39.00418 -99.79652 19621 ft 377 kts 110°
2026-05-07 18:34 38.99484 -99.76524 19127 ft 373 kts 110°
2026-05-07 18:35 38.98558 -99.73428 18634 ft 369 kts 109°
2026-05-07 18:35 38.97643 -99.70369 18143 ft 365 kts 109°
2026-05-07 18:35 38.96737 -99.67342 17643 ft 361 kts 109°
2026-05-07 18:35 38.95839 -99.64349 17168 ft 358 kts 109°
2026-05-07 18:36 38.94946 -99.61372 16694 ft 355 kts 109°
2026-05-07 18:36 38.94059 -99.58419 16231 ft 353 kts 109°
2026-05-07 18:36 38.93178 -99.55491 15767 ft 350 kts 109°
2026-05-07 18:36 38.92304 -99.52590 15291 ft 347 kts 109°
2026-05-07 18:37 38.91438 -99.49716 14840 ft 343 kts 109°
2026-05-07 18:37 38.90590 -99.46907 14398 ft 340 kts 109°
2026-05-07 18:37 38.89736 -99.44078 13957 ft 339 kts 109°
2026-05-07 18:37 38.88886 -99.41266 13480 ft 336 kts 109°
2026-05-07 18:38 38.88043 -99.38483 13036 ft 333 kts 109°
2026-05-07 18:38 38.87207 -99.35724 12610 ft 331 kts 109°
2026-05-07 18:38 38.86376 -99.32982 12176 ft 329 kts 109°
2026-05-07 18:38 38.85548 -99.30254 11744 ft 327 kts 109°
2026-05-07 18:39 38.84532 -99.27663 11248 ft 328 kts 126°
2026-05-07 18:39 38.82880 -99.25686 10870 ft 323 kts 141°
2026-05-07 18:39 38.81120 -99.23894 10473 ft 323 kts 142°
2026-05-07 18:39 38.79365 -99.22106 10052 ft 321 kts 142°
2026-05-07 18:40 38.77634 -99.20306 9596 ft 318 kts 141°
2026-05-07 18:40 38.75928 -99.18530 9160 ft 314 kts 141°
2026-05-07 18:40 38.74240 -99.16790 8753 ft 309 kts 142°
2026-05-07 18:40 38.72595 -99.15097 8351 ft 305 kts 142°
2026-05-07 18:41 38.70943 -99.13392 7952 ft 305 kts 142°
2026-05-07 18:41 38.69301 -99.11699 7550 ft 302 kts 142°
2026-05-07 18:41 38.67672 -99.10020 7158 ft 298 kts 142°
2026-05-07 18:41 38.66069 -99.08370 6770 ft 296 kts 142°
2026-05-07 18:42 38.64458 -99.06715 6373 ft 296 kts 142°
2026-05-07 18:42 38.62869 -99.05079 5975 ft 292 kts 143°
2026-05-07 18:42 38.61290 -99.03456 5582 ft 291 kts 143°
2026-05-07 18:42 38.59710 -99.01834 5203 ft 288 kts 143°
2026-05-07 18:43 38.58176 -99.00257 4846 ft 279 kts 143°
2026-05-07 18:43 38.56684 -98.98725 4458 ft 271 kts 144°
2026-05-07 18:43 38.55315 -98.97130 4061 ft 265 kts 130°
2026-05-07 18:43 38.54636 -98.95058 3927 ft 256 kts 103°
2026-05-07 18:44 38.54541 -98.92796 3999 ft 245 kts 90°
2026-05-07 18:44 38.54572 -98.90634 3989 ft 239 kts 90°
2026-05-07 18:44 38.54452 -98.88500 3942 ft 243 kts 108°
2026-05-07 18:44 38.53548 -98.86809 3949 ft 224 kts 143°
2026-05-07 18:45 38.52258 -98.85975 3973 ft 200 kts 172°
2026-05-07 18:45 38.50896 -98.85872 3984 ft 187 kts 186°
2026-05-07 18:45 38.49675 -98.85861 3988 ft 169 kts 186°
2026-05-07 18:45 38.48502 -98.85852 3972 ft 169 kts 185°
2026-05-07 18:46 38.47329 -98.85841 3939 ft 170 kts 186°
2026-05-07 18:46 38.46141 -98.85832 3804 ft 168 kts 185°
2026-05-07 18:46 38.44991 -98.85819 3580 ft 164 kts 186°
2026-05-07 18:46 38.43941 -98.85802 3460 ft 141 kts 187°
2026-05-07 18:47 38.43029 -98.85845 3538 ft 125 kts 193°
2026-05-07 18:47 38.42070 -98.85828 3207 ft 146 kts 183°
2026-05-07 18:47 38.41077 -98.85762 2927 ft 138 kts 183°
2026-05-07 18:47 38.40167 -98.85687 2682 ft 128 kts 186°
2026-05-07 18:48 38.39240 -98.85704 2537 ft 138 kts 188°
2026-05-07 18:48 38.38308 -98.85728 2392 ft 131 kts 186°
2026-05-07 18:48 38.37389 -98.85745 2166 ft 134 kts 186°
2026-05-07 18:48 38.36480 -98.85738 2060 ft 127 kts 185°
2026-05-07 18:49 38.35589 -98.85732 1894 ft 125 kts 186°
2026-05-07 18:49 38.34922 -98.85728 1884 ft 45 kts 180°
2026-05-07 18:49 38.34779 -98.85726 1890 ft 7 kts 178°
2026-05-07 18:49 38.34777 -98.85725 1890 ft 0 kts 160°
2026-05-07 18:50 38.34774 -98.85721 1885 ft 3 kts 136°
2026-05-07 18:50 38.34771 -98.85673 1889 ft 6 kts 85°
2026-05-07 18:50 38.34770 -98.85627 1888 ft 6 kts 91°
2026-05-07 18:50 38.34770 -98.85565 1888 ft 8 kts 97°
2026-05-07 18:51 38.34719 -98.85543 1883 ft 12 kts 181°
2026-05-07 18:51 38.34608 -98.85542 1889 ft 20 kts 178°
2026-05-07 18:51 38.34490 -98.85536 1889 ft 8 kts 189°
2026-05-07 18:51 38.34483 -98.85536 1889 ft 2 kts 182°
2026-05-07 18:52 38.34470 -98.85525 1889 ft 1 kts 102°
2026-05-07 18:52 38.34470 -98.85520 1889 ft 0 kts 94°